Retour au catalogue

BLOCK DM-SL R/B

ActifGTO
NORAD 28936·ROCKET BODY· XX

Lancé Feb 15, 2006 depuis Sea Launch Platform

Loading…

TLE

VieillissantSource: Space-Track

Époque: Sep 14, 2026, 21:00 UTC

1 28936U 06003B   26257.87546053 -.00000186  00000-0  00000-0 0  9993
2 28936   0.2295  96.1592 6783598  60.4131 304.1114  2.19498489165045

Suivez BLOCK DM-SL R/B en temps réel avec AllMySat

Download on the App Store